Погода в Димитровграде

Погода в Димитровграде : погода сейчас, прогноз погоды и архив. Всё, что Вы хотите узнать о погоде в Димитровграде!

Хотите узнать прогноз погоды в Димитровграде? Тогда Вам сюда: Погода в Димитровграде

Поиск расширенной информации на нашем сайте:

Другие новости

Новости СМИ2

Главная страница сайта

Новости сайта

03.07.2017

Напоминаем, что на нашем специализированном сайте Метеоцентр.Азия вы можете получить высокодетализированные автоматические прогнозы погоды по пунктам России, СНГ и мира в авиационном формате (включающие направление и скорость ветра, видимость, явления погоды, количество и форму облачности, нижнюю и верхнюю границу облачности).


Погода в Димитровграде - сегодня

Время (UTC), дата Ветер
(°,м/с) 
Видим.   Явления Облачность Т
(°С)
Тd
(°С)
f(%) Тe
(°С)
Pmin
(гПа)
dP
(гПа)
Po
(мм)
O2
(г/м3)
Тmin Tmax R s Состояние
почвы
06 20.09.18 300 (СЗ) 10 км    3/0 верхняя 
[Cs]
+13.4 +6.1 61 +14  1012.3  0.3  753  288           
09 20.09.18 300 (СЗ) 10 км    5/5 840 м 
[Cu med, cong]
+16.5 +5.2 47 +17  1011.7  -0.6  752  285           
15 20.09.18 270 (З) 10 км    10/10 800 м кучево-дожд. 
[Cb cap]
+13.1 +8.2 72 +14  1011.1  -0.3  752  288    +17.9       
18 20.09.18 тихо ()   10 км    10/10 800 м кучево-дожд. 
[Cb cap]
+12.8 +9.6 81 +13  1010.5  -0.7  751  287           
03 21.09.18 340 (С) 10 км    10/10 800 м кучево-дожд. 
[Cb cap]
+11.4 +10.7 95 +15  1013.8  754  290  +11.2      влажная 
06 21.09.18 300 (СЗ) 10 км    10/10 840 м 
[Sc]
+12.9 +10.7 86 +16  1015.4  1.6  755  289           
09 21.09.18 330 (СЗ) 10 км    10/10 800 м 
[Sc]
+15.1 +10.7 75 +18  1016.6  1.4  756  287           
18 21.09.18 330 (СЗ) 10 км    ясно 
+10.1 +9.4 95 +11  1019.3  758  293           
21 21.09.18 320 (СЗ) 10 км    ясно 
+9 +8.5 97 +10  1020.3  0.9  758  294           
03 22.09.18 тихо ()   10 км    6/6 930 м 
[Sc]
+8.8 +8.2 96 +9  1021.4  0.6  759  295  +7.7        влажная 
06 22.09.18 200 (Ю) 4000 м  дымка  10/0 средняя 
[As op]
+14.2 +13.6 96 +21  1021.8  0.5  760  288           
09 22.09.18 180 (Ю) 10 км    3/0 средняя, верхняя 
[Ac cast|Ci sp]
+21.1 +14.9 68 +29  1021  -0.6  759  281           
12 22.09.18 300 (СЗ) 10 км    3/0 средняя 
[Ac cast]
+25 +13.2 48 +30  1020  -0.9  759  278           
15 22.09.18 тихо ()   10 км    ясно 
+18 +13.9 77 +25  1020  -0.2  758  284    +25.1       
18 22.09.18 тихо ()   10 км    ясно 
+13.8 +12.8 94 +19  1020.3  0.1  759  288           
21 22.09.18 330 (СЗ) 10 км    ясно 
+11.3 +10.6 95 +14  1020  -0.3  758  291           
00 23.09.18 330 (СЗ) 10 км    ясно 
+9.6 +9.1 97 +11  1019.9  -0.2  758  294           
03 23.09.18 тихо ()   10 км    1/0 верхняя 
[Ci fib]
+8.6 +8 96 +9  1019.8  -0.2  758  295  +8.3        влажная 
06 23.09.18 190 (Ю) 10 км    ясно 
+18.1 +13.5 74 +26  1018.8  -0.6  758  284           
09 23.09.18 210 (ЮЗ) 10 км    ясно 
+23.9 +12.6 49 +28  1017.4  -1.2  757  278           
12 23.09.18 190 (Ю) 10 км    ясно 
+24.2 +10.7 43 +26  1015.8  -1.6  756  278           
18 23.09.18 140 (ЮВ) 10 км    ясно 
+17 +10.4 65 +20  1013.2  -1.1  753  284           
21 23.09.18 110 (В) 10 км    ясно 
+13.2 +8.7 74 +14  1012.4  -1  753  288           
00 24.09.18 110 (В) 10 км    ясно 
+12 +6.2 68 +12  1011.4  -1  752  289           
03 24.09.18 130 (ЮВ) 10 км    8/0 верхняя 
[Ci sp]
+10.7 +4 63 +12  1010.3  -1.1  751  291  +9.7        сухая 
Время (UTC), дата Ветер
(°,м/с) 
Видим.   Явления Облачность Т
(°С)
Тd
(°С)
f(%) Тe
(°С)
Pmin
(гПа)
dP
(гПа)
Po
(мм)
O2
(г/м3)
Тmin Tmax R s Состояние
почвы

Для получения пояснительной информации подведите курсор к названию столбца.

ПОГОДА в Димитровграде - архив

Всё, что Вы хотите узнать о погоде в Димитровграде - удобно и подробно!

Выберите нужную дату (начиная с 1 января 2015* года) и нажмите кнопку "Найти".
Будут отображены архивные сводки погоды по пункту Димитровград, начиная с указанной даты.


Отображать данные в формате CSV (для использования в таблицах Excel)


Внимание! Наш архив погоды предназначен исключительно для личного некоммерческого использования в познавательных целях. Если Вам необходимы официальные справки о состоянии погоды (для производственных, юридических, коммерческих и т.п. целей), обращайтесь в органы Росгидромета.

*Примечание: данная дата относится к архиву по метеостанциям СССР (Россия, СНГ, Балтия).
Архив по метеостанциям Зарубежной Европы и Азии (кроме Китая) хранится 10 дней, по другим регионам земного шара (Китай, Африка, Америка, Австралия, Океания) - 1 день.

Димитровград - район местоположения метеостанции


Название, широта, долгота, высота метеостанции:
Димитровград 54.2°ш. 49.6°д. 73 м над ур. моря [Российская Федерация]

Дополнительная информация

В oтличие oт бoльшинства пoгoдных сайтoв мы публикуем пoдрoбную метеoинфoрмацию в детальнoм прoфессиoнальнoм фoрмате.

Характеристики температуры и влажнoсти вoздуха измеряются на высoте 2 м в тени вдали oт зданий и деревьев.
Скoрoсть ветра измеряется на высoте 10 м (на урoвне рoста челoвека скoрoсть ветра ниже в 1.5-2 раза). Если метеoстанция нахoдится в гoрoде или в лесу, тo скoрoсть ветра занижена на 2-4 м/с пo сравнению с oткрытым местoм. Скoрoсть ветра над акватoриями крупных рек и oзёр, а также на вершинах хoлмoв на 2-5 м/с выше, чем в oбычных услoвиях.
Атмoсфернoе давление в разных тoчках местнoсти мoжет значительнo oтличаться oт давления на метеoстанции, в зависимoсти oт услoвий рельефа (при пoдъёме на 10 м давление пoнижается примернo на 1 мм рт.ст.).